Location: Cahas Mountain Overlook
(37.0833°N, 80.1000°W)
Time: 07:50:35
(UTC-04:00)

Explorer 7 - Pass Details

Date: 08 February 2026
Orbit: 430 x 540 km, 50.2° (Epoch: 14 March)

Event Time Altitude Azimuth Distance (km) Brightness Sun altitude
Rises 20:20:19 0° 279° (W) 2,532 11.4 -29.8°
Reaches altitude 10° 20:23:03 10° 301° (WNW) 1,681 10.0 -30.3°
Enters shadow 20:24:14 14° 318° (NW) 1,437 9.4 -30.6°
Maximum altitude 20:25:36 17° 343° (NNW) 1,333 - -30.8°
Drops below altitude 10° 20:28:13 10° 25° (NNE) 1,732 - -31.3°
Sets 20:31:06 0° 46° (NE) 2,646 - -31.9°
